FPO744 LICJ-LFQQ

Flight info

Callsign FPO744
Flight time 2h 22m
Altitude 34000
Route GIANO DCT RUGOX DCT MADKA DCT AJO DCT OMEDA DCT MERLU/N0463F350 DCT MADKA/N0463F360 DCT AJO DCT OMEDA DCT MERLU DCT PIGOS DCT BARSO DCT OKTET DCT GIPNO DCT BULOL DCT IDAVO DCT BAGBI DCT SIZZA DCT LAULY DCT BRY DCT CLM DCT KOPOR DCT PERON N874 CMB
Aircraft B738/M-SDE2E3FGHIJ1J4J5LM1OP2RVWXY/LB1D1

Departure

Time 2026-05-08 17:16
Airport Falcone–Borsellino Airport (LICJ)

Arrival

Time 2026-05-08 19:39
Airport Lille Airport (LFQQ)
Time Latitude Longitude Altitude Speed Heading
2026-05-08 16:35 38.18549 13.10885 69 ft 0 kts 248°
2026-05-08 17:06 38.18544 13.10871 69 ft 2 kts 247°
2026-05-08 17:07 38.18542 13.10865 69 ft 2 kts 247°
2026-05-08 17:07 38.18523 13.10819 69 ft 7 kts 223°
2026-05-08 17:07 38.18483 13.10829 69 ft 5 kts 120°
2026-05-08 17:08 38.18474 13.10864 70 ft 3 kts 105°
2026-05-08 17:08 38.18469 13.10886 70 ft 1 kts 105°
2026-05-08 17:08 38.18463 13.10910 71 ft 5 kts 115°
2026-05-08 17:08 38.18429 13.10963 73 ft 10 kts 112°
2026-05-08 17:09 38.18449 13.11061 74 ft 11 kts 66°
2026-05-08 17:09 38.18481 13.11155 73 ft 11 kts 67°
2026-05-08 17:09 38.18514 13.11253 71 ft 12 kts 66°
2026-05-08 17:09 38.18546 13.11349 71 ft 11 kts 66°
2026-05-08 17:10 38.18582 13.11451 68 ft 13 kts 67°
2026-05-08 17:10 38.18615 13.11564 67 ft 13 kts 77°
2026-05-08 17:10 38.18612 13.11665 66 ft 3 kts 97°
2026-05-08 17:10 38.18612 13.11667 66 ft 0 kts 97°
2026-05-08 17:14 38.18609 13.11699 66 ft 6 kts 97°
2026-05-08 17:14 38.18603 13.11759 65 ft 7 kts 98°
2026-05-08 17:14 38.18595 13.11832 64 ft 9 kts 98°
2026-05-08 17:15 38.18557 13.11888 63 ft 8 kts 163°
2026-05-08 17:15 38.18512 13.11868 64 ft 6 kts 239°
2026-05-08 17:15 38.18508 13.11857 64 ft 0 kts 244°
2026-05-08 17:15 38.18486 13.11798 66 ft 29 kts 247°
2026-05-08 17:16 38.18326 13.11298 76 ft 90 kts 246°
2026-05-08 17:16 38.18003 13.10350 74 ft 143 kts 248°
2026-05-08 17:16 38.17551 13.08989 102 ft 181 kts 248°
2026-05-08 17:16 38.17060 13.07551 704 ft 179 kts 249°
2026-05-08 17:17 38.16577 13.06085 1309 ft 181 kts 250°
2026-05-08 17:17 38.16120 13.04620 1899 ft 185 kts 252°
2026-05-08 17:17 38.15641 13.02980 2199 ft 211 kts 252°
2026-05-08 17:17 38.15150 13.01179 2776 ft 223 kts 253°
2026-05-08 17:18 38.14700 12.99234 3239 ft 241 kts 263°
2026-05-08 17:18 38.14783 12.97045 3755 ft 257 kts 284°
2026-05-08 17:18 38.15350 12.94900 4600 ft 259 kts 290°
2026-05-08 17:18 38.15840 12.92760 5614 ft 254 kts 283°
2026-05-08 17:19 38.16294 12.90575 6445 ft 257 kts 285°
2026-05-08 17:19 38.16852 12.88475 7324 ft 257 kts 291°
2026-05-08 17:19 38.17640 12.86443 8203 ft 258 kts 300°
2026-05-08 17:19 38.18905 12.84784 8887 ft 271 kts 323°
2026-05-08 17:20 38.20593 12.83667 9599 ft 278 kts 330°
2026-05-08 17:20 38.22377 12.82718 9939 ft 279 kts 332°
2026-05-08 17:20 38.24817 12.81502 10011 ft 282 kts 333°
2026-05-08 17:20 38.26044 12.80895 10011 ft 279 kts 333°
2026-05-08 17:21 38.27834 12.80004 10009 ft 279 kts 333°
2026-05-08 17:21 38.29642 12.79108 10011 ft 282 kts 333°
2026-05-08 17:21 38.31539 12.78159 10312 ft 301 kts 333°
2026-05-08 17:21 38.33520 12.77152 10697 ft 317 kts 333°
2026-05-08 17:22 38.35619 12.76073 11137 ft 330 kts 333°
2026-05-08 17:22 38.37808 12.74939 11513 ft 345 kts 333°
2026-05-08 17:22 38.40087 12.73753 11833 ft 361 kts 333°
2026-05-08 17:22 38.42438 12.72525 12321 ft 370 kts 333°
2026-05-08 17:23 38.44842 12.71264 12879 ft 377 kts 333°
2026-05-08 17:23 38.47281 12.69986 13558 ft 380 kts 333°
2026-05-08 17:23 38.49727 12.68709 14221 ft 382 kts 333°
2026-05-08 17:23 38.52216 12.67422 14812 ft 387 kts 333°
2026-05-08 17:24 38.54726 12.66135 15466 ft 390 kts 333°
2026-05-08 17:24 38.57230 12.64860 16094 ft 392 kts 333°
2026-05-08 17:24 38.59799 12.63559 16743 ft 394 kts 333°
2026-05-08 17:24 38.62348 12.62274 17301 ft 398 kts 333°
2026-05-08 17:25 38.64930 12.60982 17894 ft 401 kts 333°
2026-05-08 17:25 38.67543 12.59683 18488 ft 404 kts 333°
2026-05-08 17:25 38.70148 12.58397 19032 ft 407 kts 333°
2026-05-08 17:25 38.72804 12.57090 19635 ft 409 kts 333°
2026-05-08 17:26 38.75452 12.55794 20226 ft 412 kts 333°
2026-05-08 17:26 38.78141 12.54485 20758 ft 415 kts 333°
2026-05-08 17:26 38.80796 12.53016 21299 ft 412 kts 326°
2026-05-08 17:26 38.83172 12.51084 21743 ft 409 kts 317°
2026-05-08 17:27 38.85284 12.48652 22337 ft 403 kts 308°
2026-05-08 17:27 38.86994 12.45857 22805 ft 401 kts 300°
2026-05-08 17:27 38.88562 12.42901 23365 ft 404 kts 302°
2026-05-08 17:27 38.90383 12.40121 23754 ft 412 kts 308°
2026-05-08 17:28 38.92387 12.37484 24229 ft 417 kts 310°
2026-05-08 17:28 38.94495 12.34914 24653 ft 421 kts 311°
2026-05-08 17:28 38.96681 12.32320 25108 ft 425 kts 311°
2026-05-08 17:28 38.98830 12.29776 25558 ft 428 kts 311°
2026-05-08 17:29 39.01027 12.27155 26030 ft 430 kts 311°
2026-05-08 17:29 39.03197 12.24539 26455 ft 432 kts 311°
2026-05-08 17:29 39.05397 12.21861 26872 ft 435 kts 311°
2026-05-08 17:29 39.07599 12.19162 27248 ft 438 kts 310°
2026-05-08 17:30 39.09766 12.16489 27764 ft 437 kts 310°
2026-05-08 17:30 39.11973 12.13765 28456 ft 432 kts 310°
2026-05-08 17:30 39.14115 12.11114 29056 ft 429 kts 310°
2026-05-08 17:30 39.16251 12.08461 29559 ft 429 kts 310°
2026-05-08 17:31 39.18395 12.05792 29977 ft 429 kts 309°
2026-05-08 17:31 39.20518 12.03142 30466 ft 428 kts 310°
2026-05-08 17:31 39.22643 12.00487 30957 ft 426 kts 310°
2026-05-08 17:31 39.24768 11.97831 31429 ft 425 kts 310°
2026-05-08 17:32 39.26891 11.95176 31941 ft 422 kts 309°
2026-05-08 17:32 39.28990 11.92547 32428 ft 418 kts 309°
2026-05-08 17:32 39.31017 11.90017 33372 ft 405 kts 309°
2026-05-08 17:32 39.33019 11.87518 33841 ft 399 kts 309°
2026-05-08 17:33 39.35001 11.85030 34003 ft 398 kts 309°
2026-05-08 17:33 39.36973 11.82549 34001 ft 394 kts 309°
2026-05-08 17:33 39.40864 11.77645 34033 ft 393 kts 309°
2026-05-08 17:34 39.42816 11.75177 34367 ft 392 kts 308°
2026-05-08 17:34 39.44750 11.72737 34841 ft 389 kts 308°
2026-05-08 17:34 39.46684 11.70299 35323 ft 384 kts 308°
2026-05-08 17:34 39.48577 11.67909 35506 ft 387 kts 308°
2026-05-08 17:35 39.50523 11.65441 35693 ft 387 kts 308°
2026-05-08 17:35 39.52430 11.63021 35793 ft 391 kts 308°
2026-05-08 17:35 39.54382 11.60542 35904 ft 395 kts 308°
2026-05-08 17:35 39.56332 11.58067 36209 ft 393 kts 308°
2026-05-08 17:36 39.58304 11.55573 36620 ft 390 kts 308°
2026-05-08 17:36 39.60217 11.53151 36961 ft 387 kts 308°
2026-05-08 17:36 39.64084 11.48237 37001 ft 390 kts 308°
2026-05-08 17:37 39.67942 11.43328 37003 ft 388 kts 308°
2026-05-08 17:37 39.71822 11.38379 37004 ft 389 kts 308°
2026-05-08 17:38 39.75679 11.33451 37006 ft 391 kts 308°
2026-05-08 17:38 39.79546 11.28504 37003 ft 389 kts 308°
2026-05-08 17:39 39.83390 11.23577 37005 ft 391 kts 308°
2026-05-08 17:39 39.87258 11.18617 37007 ft 389 kts 308°
2026-05-08 17:40 39.91122 11.13645 37006 ft 391 kts 308°
2026-05-08 17:40 39.94986 11.08672 37005 ft 391 kts 308°
2026-05-08 17:41 39.98851 11.03688 37005 ft 391 kts 308°
2026-05-08 17:41 40.02718 10.98691 37006 ft 393 kts 308°
2026-05-08 17:42 40.06577 10.93699 37009 ft 392 kts 308°
2026-05-08 17:42 40.10468 10.88656 37011 ft 393 kts 308°
2026-05-08 17:43 40.14341 10.83627 37015 ft 393 kts 308°
2026-05-08 17:43 40.18197 10.78611 37023 ft 393 kts 308°
2026-05-08 17:44 40.22076 10.73555 37016 ft 394 kts 308°
2026-05-08 17:44 40.25974 10.68466 37013 ft 395 kts 308°
2026-05-08 17:45 40.29858 10.63386 37017 ft 395 kts 308°
2026-05-08 17:45 40.33732 10.58317 37018 ft 396 kts 308°
2026-05-08 17:46 40.37604 10.53236 37016 ft 396 kts 308°
2026-05-08 17:46 40.41496 10.48120 37013 ft 398 kts 308°
2026-05-08 17:47 40.45386 10.43000 37015 ft 398 kts 308°
2026-05-08 17:47 40.49300 10.37840 37011 ft 397 kts 308°
2026-05-08 17:48 40.51249 10.35268 36697 ft 396 kts 308°
2026-05-08 17:48 40.53191 10.32704 36957 ft 394 kts 307°
2026-05-08 17:48 40.57069 10.27567 37018 ft 400 kts 307°
2026-05-08 17:49 40.60996 10.22356 37013 ft 401 kts 307°
2026-05-08 17:49 40.64922 10.17147 37012 ft 401 kts 307°
2026-05-08 17:50 40.68853 10.11917 37013 ft 402 kts 307°
2026-05-08 17:50 40.72781 10.06682 37013 ft 404 kts 308°
2026-05-08 17:51 40.76720 10.01423 37013 ft 404 kts 308°
2026-05-08 17:51 40.80666 9.96149 37021 ft 404 kts 308°
2026-05-08 17:52 40.84627 9.90839 37014 ft 405 kts 308°
2026-05-08 17:53 40.90549 9.82885 37010 ft 408 kts 308°
2026-05-08 17:53 40.94536 9.77520 37022 ft 406 kts 308°
2026-05-08 17:54 40.98483 9.72201 37014 ft 407 kts 308°
2026-05-08 17:54 41.02430 9.66866 37020 ft 408 kts 308°
2026-05-08 17:55 41.06388 9.61510 37019 ft 407 kts 308°
2026-05-08 17:55 41.10331 9.56167 37016 ft 408 kts 308°
2026-05-08 17:56 41.14317 9.50750 37021 ft 409 kts 308°
2026-05-08 17:56 41.18243 9.45408 37019 ft 406 kts 308°
2026-05-08 17:57 41.22203 9.40006 37021 ft 409 kts 308°
2026-05-08 17:57 41.26271 9.34652 37025 ft 412 kts 311°
2026-05-08 17:58 41.30604 9.29700 37023 ft 413 kts 314°
2026-05-08 17:58 41.35064 9.24805 37023 ft 415 kts 314°
2026-05-08 17:59 41.39476 9.19934 37026 ft 414 kts 314°
2026-05-08 17:59 41.43886 9.15020 37025 ft 414 kts 314°
2026-05-08 18:00 41.48286 9.10084 37025 ft 414 kts 314°
2026-05-08 18:00 41.54884 9.02650 37035 ft 414 kts 314°
2026-05-08 18:01 41.59275 8.97683 37034 ft 418 kts 314°
2026-05-08 18:01 41.63711 8.92660 37041 ft 416 kts 314°
2026-05-08 18:02 41.68129 8.87651 37044 ft 417 kts 314°
2026-05-08 18:02 41.72519 8.82664 37046 ft 417 kts 314°
2026-05-08 18:03 41.77042 8.77759 37046 ft 419 kts 319°
2026-05-08 18:03 41.81879 8.73770 37049 ft 398 kts 325°
2026-05-08 18:04 41.86745 8.70245 37051 ft 400 kts 326°
2026-05-08 18:04 41.91669 8.66699 37044 ft 403 kts 326°
2026-05-08 18:05 41.96592 8.63118 37041 ft 400 kts 326°
2026-05-08 18:05 42.01494 8.59522 37042 ft 402 kts 326°
2026-05-08 18:06 42.06361 8.55931 37042 ft 401 kts 326°
2026-05-08 18:06 42.11272 8.52297 37042 ft 401 kts 326°
2026-05-08 18:07 42.16150 8.48680 37038 ft 401 kts 326°
2026-05-08 18:07 42.21037 8.45052 37036 ft 400 kts 326°
2026-05-08 18:08 42.25895 8.41439 37035 ft 400 kts 326°
2026-05-08 18:08 42.30777 8.37800 37032 ft 400 kts 326°
2026-05-08 18:09 42.35616 8.34187 37033 ft 399 kts 326°
2026-05-08 18:09 42.40506 8.30529 37033 ft 398 kts 325°
2026-05-08 18:10 42.45322 8.26915 37034 ft 400 kts 326°
2026-05-08 18:10 42.50176 8.23272 37032 ft 399 kts 326°
2026-05-08 18:11 42.55026 8.19626 37030 ft 400 kts 326°
2026-05-08 18:11 42.59885 8.15965 37030 ft 401 kts 326°
2026-05-08 18:12 42.64728 8.12312 37029 ft 399 kts 326°
2026-05-08 18:12 42.69618 8.08615 37031 ft 400 kts 326°
2026-05-08 18:13 42.74440 8.04963 37030 ft 399 kts 326°
2026-05-08 18:13 42.79276 8.01294 37027 ft 399 kts 326°
2026-05-08 18:14 42.84119 7.97610 37027 ft 400 kts 326°
2026-05-08 18:14 42.89002 7.93891 37029 ft 399 kts 326°
2026-05-08 18:15 42.93823 7.90213 37028 ft 400 kts 326°
2026-05-08 18:15 42.98674 7.86505 37029 ft 401 kts 326°
2026-05-08 18:16 43.03520 7.82796 37030 ft 400 kts 326°
2026-05-08 18:16 43.08390 7.79061 37030 ft 400 kts 326°
2026-05-08 18:17 43.13204 7.75352 37030 ft 399 kts 325°
2026-05-08 18:17 43.18069 7.71591 37031 ft 399 kts 326°
2026-05-08 18:18 43.22894 7.67853 37032 ft 399 kts 325°
2026-05-08 18:18 43.27732 7.64099 37030 ft 399 kts 326°
2026-05-08 18:19 43.32573 7.60337 37031 ft 400 kts 326°
2026-05-08 18:19 43.37408 7.56573 37031 ft 400 kts 326°
2026-05-08 18:20 43.42235 7.52809 37033 ft 400 kts 326°
2026-05-08 18:20 43.47085 7.49020 37031 ft 400 kts 326°
2026-05-08 18:21 43.51931 7.45226 37035 ft 400 kts 326°
2026-05-08 18:21 43.56750 7.41447 37033 ft 400 kts 326°
2026-05-08 18:22 43.61574 7.37657 37038 ft 400 kts 326°
2026-05-08 18:22 43.66322 7.33629 37042 ft 398 kts 321°
2026-05-08 18:23 43.70881 7.29387 37046 ft 397 kts 321°
2026-05-08 18:23 43.75467 7.25095 37047 ft 398 kts 321°
2026-05-08 18:24 43.80069 7.20827 37061 ft 398 kts 321°
2026-05-08 18:24 43.84671 7.16577 37072 ft 398 kts 321°
2026-05-08 18:25 43.89247 7.12354 37087 ft 399 kts 322°
2026-05-08 18:25 43.93840 7.08115 37083 ft 397 kts 322°
2026-05-08 18:26 43.98418 7.03878 37085 ft 398 kts 322°
2026-05-08 18:26 44.03041 6.99593 37079 ft 397 kts 321°
2026-05-08 18:27 44.06879 6.96030 37084 ft 397 kts 321°
2026-05-08 18:27 44.12219 6.91062 37081 ft 397 kts 321°
2026-05-08 18:28 44.16817 6.86771 37086 ft 399 kts 322°
2026-05-08 18:28 44.21419 6.82467 37085 ft 398 kts 322°
2026-05-08 18:29 44.26009 6.78167 37087 ft 399 kts 322°
2026-05-08 18:29 44.30565 6.73892 37084 ft 399 kts 322°
2026-05-08 18:30 44.35113 6.69616 37085 ft 399 kts 322°
2026-05-08 18:30 44.39713 6.65282 37086 ft 398 kts 322°
2026-05-08 18:31 44.44284 6.60965 37087 ft 398 kts 321°
2026-05-08 18:31 44.48851 6.56643 37088 ft 399 kts 322°
2026-05-08 18:32 44.53436 6.52303 37090 ft 398 kts 322°
2026-05-08 18:32 44.58025 6.47951 37090 ft 398 kts 321°
2026-05-08 18:33 44.62313 6.43874 37101 ft 399 kts 322°
2026-05-08 18:33 44.66901 6.39506 37097 ft 398 kts 321°
2026-05-08 18:34 44.71468 6.35149 37103 ft 398 kts 322°
2026-05-08 18:34 44.76053 6.30762 37106 ft 398 kts 321°
2026-05-08 18:35 44.80601 6.26408 37090 ft 397 kts 321°
2026-05-08 18:35 44.85197 6.21998 37089 ft 398 kts 321°
2026-05-08 18:36 44.89755 6.17615 37092 ft 396 kts 321°
2026-05-08 18:36 44.94301 6.13237 37095 ft 397 kts 321°
2026-05-08 18:37 44.98875 6.08820 37091 ft 398 kts 321°
2026-05-08 18:37 45.03417 6.04428 37083 ft 396 kts 321°
2026-05-08 18:38 45.07975 6.00013 37082 ft 397 kts 321°
2026-05-08 18:38 45.12558 5.95558 37085 ft 405 kts 321°
2026-05-08 18:39 45.17141 5.91092 37195 ft 414 kts 321°
2026-05-08 18:39 45.21855 5.86492 37390 ft 421 kts 321°
2026-05-08 18:40 45.24256 5.84148 37560 ft 423 kts 322°
2026-05-08 18:40 45.26650 5.81810 37820 ft 423 kts 321°
2026-05-08 18:40 45.29072 5.79443 38091 ft 422 kts 322°
2026-05-08 18:40 45.31502 5.77065 38082 ft 423 kts 322°
2026-05-08 18:41 45.36286 5.72377 38071 ft 418 kts 322°
2026-05-08 18:41 45.41078 5.67669 38066 ft 418 kts 321°
2026-05-08 18:42 45.45852 5.62964 38056 ft 419 kts 321°
2026-05-08 18:42 45.50549 5.58325 38036 ft 420 kts 321°
2026-05-08 18:43 45.60113 5.49073 38031 ft 421 kts 324°
2026-05-08 18:44 45.65110 5.44658 38014 ft 420 kts 325°
2026-05-08 18:44 45.70014 5.40342 38009 ft 419 kts 324°
2026-05-08 18:45 45.75008 5.35907 38008 ft 420 kts 324°
2026-05-08 18:45 45.79720 5.31691 38003 ft 419 kts 324°
2026-05-08 18:46 45.84624 5.27284 38006 ft 418 kts 323°
2026-05-08 18:46 45.89552 5.22837 37993 ft 417 kts 323°
2026-05-08 18:47 45.94446 5.18410 37999 ft 417 kts 323°
2026-05-08 18:47 45.99373 5.13943 37975 ft 418 kts 324°
2026-05-08 18:48 46.04308 5.09564 37982 ft 419 kts 327°
2026-05-08 18:48 46.09545 5.05844 37980 ft 422 kts 332°
2026-05-08 18:49 46.14796 5.02546 37974 ft 422 kts 333°
2026-05-08 18:49 46.20195 4.99190 37975 ft 421 kts 332°
2026-05-08 18:50 46.25541 4.95825 37975 ft 421 kts 332°
2026-05-08 18:50 46.30814 4.92388 37970 ft 420 kts 330°
2026-05-08 18:51 46.35858 4.88779 37977 ft 421 kts 329°
2026-05-08 18:51 46.41060 4.84980 37975 ft 421 kts 329°
2026-05-08 18:52 46.46268 4.81202 37992 ft 419 kts 330°
2026-05-08 18:52 46.51350 4.77533 37990 ft 418 kts 330°
2026-05-08 18:53 46.56513 4.73812 37991 ft 419 kts 329°
2026-05-08 18:53 46.61745 4.70036 37994 ft 418 kts 330°
2026-05-08 18:54 46.66918 4.66301 37994 ft 417 kts 330°
2026-05-08 18:54 46.72141 4.62518 37991 ft 417 kts 330°
2026-05-08 18:55 46.79896 4.56886 37994 ft 416 kts 330°
2026-05-08 18:56 46.85068 4.53119 38001 ft 417 kts 330°
2026-05-08 18:56 46.90264 4.49327 37997 ft 417 kts 330°
2026-05-08 18:57 46.95435 4.45545 37996 ft 416 kts 330°
2026-05-08 18:57 47.00588 4.41770 37998 ft 415 kts 330°
2026-05-08 18:58 47.05758 4.37974 37997 ft 415 kts 330°
2026-05-08 18:58 47.10847 4.34229 37998 ft 417 kts 329°
2026-05-08 18:59 47.15973 4.30450 38006 ft 414 kts 329°
2026-05-08 18:59 47.21109 4.26655 38004 ft 413 kts 329°
2026-05-08 19:00 47.26227 4.22863 38016 ft 414 kts 329°
2026-05-08 19:00 47.31408 4.19015 38004 ft 415 kts 329°
2026-05-08 19:01 47.36505 4.15226 38011 ft 412 kts 329°
2026-05-08 19:01 47.41633 4.11404 37998 ft 413 kts 329°
2026-05-08 19:02 47.46748 4.07582 38012 ft 412 kts 329°
2026-05-08 19:02 47.51851 4.03760 38008 ft 412 kts 329°
2026-05-08 19:03 47.56951 3.99932 38002 ft 411 kts 329°
2026-05-08 19:03 47.62043 3.96102 38019 ft 411 kts 329°
2026-05-08 19:04 47.67113 3.92280 38012 ft 410 kts 329°
2026-05-08 19:04 47.72185 3.88447 38007 ft 410 kts 329°
2026-05-08 19:05 47.77258 3.84608 38007 ft 410 kts 329°
2026-05-08 19:05 47.82355 3.80739 38012 ft 411 kts 330°
2026-05-08 19:06 47.87412 3.76896 38018 ft 409 kts 329°
2026-05-08 19:06 47.92466 3.73045 38012 ft 408 kts 329°
2026-05-08 19:07 47.97441 3.69246 38003 ft 407 kts 329°
2026-05-08 19:07 48.02470 3.65394 38007 ft 408 kts 329°
2026-05-08 19:08 48.07377 3.61630 38015 ft 407 kts 329°
2026-05-08 19:08 48.12304 3.57842 38005 ft 409 kts 329°
2026-05-08 19:09 48.17286 3.54003 38020 ft 408 kts 329°
2026-05-08 19:09 48.22351 3.50091 38026 ft 407 kts 330°
2026-05-08 19:10 48.27388 3.46195 38018 ft 407 kts 330°
2026-05-08 19:10 48.32381 3.42322 38019 ft 406 kts 330°
2026-05-08 19:11 48.37363 3.38449 38024 ft 406 kts 330°
2026-05-08 19:11 48.42359 3.34555 38020 ft 407 kts 329°
2026-05-08 19:12 48.47264 3.30726 38023 ft 405 kts 329°
2026-05-08 19:12 48.52256 3.26821 38026 ft 408 kts 329°
2026-05-08 19:13 48.57216 3.22932 38031 ft 405 kts 329°
2026-05-08 19:13 48.62205 3.19011 38034 ft 404 kts 329°
2026-05-08 19:14 48.67102 3.15154 38036 ft 404 kts 329°
2026-05-08 19:14 48.72109 3.11199 38034 ft 406 kts 329°
2026-05-08 19:15 48.77075 3.07269 38037 ft 405 kts 329°
2026-05-08 19:15 48.82049 3.03324 37570 ft 401 kts 329°
2026-05-08 19:15 48.84496 3.01380 37011 ft 397 kts 329°
2026-05-08 19:16 48.86913 2.99390 36401 ft 395 kts 328°
2026-05-08 19:16 48.89309 2.97320 36063 ft 389 kts 327°
2026-05-08 19:16 48.91637 2.95264 35643 ft 385 kts 327°
2026-05-08 19:16 48.93916 2.93240 35220 ft 381 kts 327°
2026-05-08 19:17 48.96208 2.91205 34785 ft 378 kts 327°
2026-05-08 19:17 48.98443 2.89226 34323 ft 375 kts 328°
2026-05-08 19:17 49.00705 2.87228 33877 ft 370 kts 328°
2026-05-08 19:17 49.02895 2.85297 33463 ft 365 kts 328°
2026-05-08 19:18 49.05074 2.83411 32999 ft 362 kts 332°
2026-05-08 19:18 49.07492 2.82220 32182 ft 371 kts 352°
2026-05-08 19:18 49.10020 2.82397 31656 ft 373 kts
2026-05-08 19:18 49.12602 2.83116 31211 ft 370 kts
2026-05-08 19:19 49.15084 2.83910 30723 ft 367 kts
2026-05-08 19:19 49.17572 2.84716 30260 ft 363 kts
2026-05-08 19:19 49.20029 2.85487 29821 ft 359 kts
2026-05-08 19:19 49.22496 2.86234 29321 ft 358 kts
2026-05-08 19:20 49.24917 2.86946 28819 ft 356 kts
2026-05-08 19:20 49.26530 2.87413 28486 ft 355 kts
2026-05-08 19:20 49.29726 2.88328 27825 ft 352 kts
2026-05-08 19:20 49.32120 2.89009 27321 ft 350 kts
2026-05-08 19:21 49.34505 2.89685 26820 ft 348 kts
2026-05-08 19:21 49.36870 2.90355 26324 ft 347 kts
2026-05-08 19:21 49.39236 2.91027 25827 ft 345 kts
2026-05-08 19:21 49.41609 2.91560 25332 ft 341 kts
2026-05-08 19:22 49.43958 2.91491 24845 ft 337 kts 353°
2026-05-08 19:22 49.46254 2.91087 24369 ft 335 kts 351°
2026-05-08 19:22 49.48576 2.90607 23884 ft 334 kts 351°
2026-05-08 19:22 49.50867 2.90169 23278 ft 337 kts 353°
2026-05-08 19:23 49.53209 2.89784 22673 ft 340 kts 353°
2026-05-08 19:23 49.55559 2.89447 22004 ft 345 kts 354°
2026-05-08 19:23 49.57954 2.89134 21400 ft 347 kts 355°
2026-05-08 19:23 49.60354 2.88836 20814 ft 349 kts 355°
2026-05-08 19:24 49.62763 2.88544 20230 ft 350 kts 355°
2026-05-08 19:24 49.65208 2.88250 19608 ft 353 kts 355°
2026-05-08 19:24 49.67648 2.87956 18968 ft 356 kts 355°
2026-05-08 19:24 49.70143 2.87655 18316 ft 359 kts 356°
2026-05-08 19:25 49.72625 2.87356 17661 ft 362 kts 356°
2026-05-08 19:25 49.75120 2.87055 17009 ft 363 kts 356°
2026-05-08 19:25 49.77658 2.86749 16391 ft 363 kts 355°
2026-05-08 19:25 49.80165 2.86445 15783 ft 363 kts 355°
2026-05-08 19:26 49.82655 2.86143 15183 ft 363 kts 355°
2026-05-08 19:26 49.85191 2.85835 14559 ft 363 kts 355°
2026-05-08 19:26 49.87714 2.85528 13736 ft 368 kts 355°
2026-05-08 19:26 49.90214 2.85224 13553 ft 354 kts 355°
2026-05-08 19:27 49.92646 2.84928 13054 ft 352 kts 355°
2026-05-08 19:27 49.95090 2.84629 12483 ft 351 kts 355°
2026-05-08 19:27 49.97376 2.84350 11981 ft 349 kts 355°
2026-05-08 19:27 49.99781 2.84056 11462 ft 348 kts 356°
2026-05-08 19:28 50.02195 2.83761 10964 ft 345 kts 356°
2026-05-08 19:28 50.04542 2.83473 10455 ft 341 kts 356°
2026-05-08 19:28 50.06897 2.83184 9986 ft 329 kts 356°
2026-05-08 19:28 50.09097 2.82914 9659 ft 315 kts 356°
2026-05-08 19:29 50.11241 2.82650 9241 ft 304 kts 356°
2026-05-08 19:29 50.13307 2.82395 8877 ft 292 kts 356°
2026-05-08 19:29 50.15297 2.82151 8524 ft 288 kts 356°
2026-05-08 19:29 50.17300 2.81907 8143 ft 286 kts 356°
2026-05-08 19:30 50.19267 2.81666 7787 ft 283 kts 357°
2026-05-08 19:30 50.21219 2.81426 7438 ft 281 kts 357°
2026-05-08 19:30 50.23146 2.81194 7159 ft 276 kts 357°
2026-05-08 19:30 50.25051 2.80978 6827 ft 274 kts 358°
2026-05-08 19:31 50.26951 2.80766 6371 ft 277 kts 357°
2026-05-08 19:31 50.28863 2.80533 6075 ft 273 kts 357°
2026-05-08 19:31 50.30758 2.80328 5688 ft 273 kts 358°
2026-05-08 19:31 50.32623 2.80140 5363 ft 270 kts 358°
2026-05-08 19:32 50.34487 2.79914 5060 ft 266 kts 356°
2026-05-08 19:32 50.36339 2.79639 4655 ft 265 kts 356°
2026-05-08 19:32 50.38134 2.79362 4459 ft 257 kts 356°
2026-05-08 19:32 50.39896 2.79105 4239 ft 251 kts 357°
2026-05-08 19:33 50.41600 2.79027 4126 ft 241 kts
2026-05-08 19:33 50.43241 2.79302 3901 ft 236 kts 11°
2026-05-08 19:33 50.44830 2.79750 3652 ft 232 kts 14°
2026-05-08 19:33 50.46383 2.80246 3500 ft 223 kts 14°
2026-05-08 19:34 50.47874 2.80694 3304 ft 215 kts 13°
2026-05-08 19:34 50.49321 2.81084 3081 ft 208 kts 11°
2026-05-08 19:34 50.50718 2.81381 2948 ft 198 kts 10°
2026-05-08 19:34 50.51994 2.81910 2837 ft 183 kts 33°
2026-05-08 19:35 50.52782 2.83296 2735 ft 166 kts 71°
2026-05-08 19:35 50.52986 2.85027 2752 ft 161 kts 83°
2026-05-08 19:35 50.53142 2.86767 2624 ft 168 kts 79°
2026-05-08 19:35 50.53413 2.88574 2483 ft 171 kts 75°
2026-05-08 19:36 50.53734 2.90345 2361 ft 168 kts 74°
2026-05-08 19:36 50.54021 2.92107 2180 ft 157 kts 76°
2026-05-08 19:36 50.54235 2.93733 1975 ft 151 kts 79°
2026-05-08 19:36 50.54438 2.95321 1857 ft 149 kts 77°
2026-05-08 19:37 50.54665 2.96924 1642 ft 149 kts 77°
2026-05-08 19:37 50.54886 2.98440 1446 ft 144 kts 76°
2026-05-08 19:37 50.55102 2.99945 1240 ft 141 kts 77°
2026-05-08 19:37 50.55312 3.01430 1042 ft 141 kts 77°
2026-05-08 19:38 50.55521 3.02929 852 ft 142 kts 78°
2026-05-08 19:38 50.55746 3.04469 664 ft 143 kts 77°
2026-05-08 19:38 50.55956 3.05975 487 ft 144 kts 77°
2026-05-08 19:38 50.56181 3.07497 294 ft 146 kts 78°
2026-05-08 19:39 50.56393 3.09030 157 ft 140 kts 77°
2026-05-08 19:39 50.56557 3.10195 150 ft 87 kts 77°
2026-05-08 19:39 50.56656 3.10884 143 ft 45 kts 77°
2026-05-08 19:39 50.56717 3.11318 139 ft 34 kts 78°
2026-05-08 19:40 50.56743 3.11512 138 ft 14 kts 78°
2026-05-08 19:40 50.56794 3.11628 137 ft 12 kts 12°
2026-05-08 19:40 50.56862 3.11610 138 ft 8 kts 346°
2026-05-08 19:40 50.56908 3.11590 138 ft 6 kts 336°
2026-05-08 19:41 50.56938 3.11546 139 ft 5 kts 297°
2026-05-08 19:41 50.56943 3.11495 139 ft 4 kts 259°
2026-05-08 19:41 50.56935 3.11446 139 ft 7 kts 255°
2026-05-08 19:41 50.56920 3.11351 140 ft 9 kts 257°
2026-05-08 19:42 50.56906 3.11247 141 ft 10 kts 258°
2026-05-08 19:42 50.56892 3.11144 142 ft 9 kts 257°
2026-05-08 19:42 50.56879 3.11062 143 ft 7 kts 256°
2026-05-08 19:42 50.56869 3.11000 143 ft 6 kts 256°
2026-05-08 19:43 50.56859 3.10916 144 ft 9 kts 259°
2026-05-08 19:43 50.56850 3.10809 146 ft 9 kts 272°
2026-05-08 19:43 50.56875 3.10741 147 ft 6 kts 335°
2026-05-08 19:43 50.56910 3.10725 147 ft 4 kts 345°
2026-05-08 19:44 50.56936 3.10714 148 ft 4 kts 346°
2026-05-08 19:44 50.56965 3.10706 148 ft 5 kts 350°
2026-05-08 19:44 50.57002 3.10696 149 ft 6 kts 345°
2026-05-08 19:44 50.57026 3.10657 150 ft 4 kts 280°
2026-05-08 19:45 50.57025 3.10627 150 ft 1 kts 265°
2026-05-08 19:45 50.57025 3.10605 150 ft 3 kts 280°
2026-05-08 19:45 50.57035 3.10585 151 ft 1 kts 340°
2026-05-08 19:45 50.57043 3.10585 151 ft 2 kts
2026-05-08 19:46 50.57062 3.10590 151 ft 3 kts 10°
2026-05-08 19:46 50.57077 3.10594 151 ft 1 kts 11°
2026-05-08 19:46 50.57093 3.10600 151 ft 1 kts 12°
2026-05-08 19:47 50.57098 3.10601 151 ft 1 kts 12°
2026-05-08 19:47 50.57103 3.10603 152 ft 0 kts 12°
2026-05-08 19:47 50.57105 3.10604 152 ft 0 kts 13°